Location: Dehesa de la Cepeda
(40.6574°N, 4.3013°W)
Time: 13:14:09
(UTC+00:00)

Explorer 7 - Pass Details

Date: 10 August 2021
Orbit: 484 x 676 km, 50.3° (Epoch: 27 September)

Event Time Altitude Azimuth Distance (km) Brightness Sun altitude
Exits shadow 02:35:11 38° 10° (N) 759 7.9 -26.0°
Drops below altitude 10° 02:38:00 10° 47° (NE) 1,679 10.3 -25.6°
Sets 02:40:16 0° 54° (NE) 2,578 11.4 -25.4°
